When you browse on this site, cookies collect data to enhance your experience and personalize the content and advertising you see.
Visit our Privacy Policy to learn more. By continuing to use the site, you agree to this use of cookies and data.
  • en Suisse
  • Liste des pays
  • À 7 jours
  • Température de l'eau
  • Carte météo
  • Widgets météo
  • user-avatar
    Se connecter

    Météo par heure à Xinqing

    Ce jour, 25 Mai, Lundi

    Heure Température Précipitation Vent Pression Humidité
    00:00 +9°C° 2 mm 0 m/s 723 mmHg 97%
    01:00 +8°C° 1.6 mm 0 m/s 723 mmHg 97%
    02:00 +8°C° 1.6 mm 0 m/s 723 mmHg 97%
    03:00 +7°C° 0 mm 0 m/s 722 mmHg 96%
    04:00 +7°C° 0 mm 0 m/s 723 mmHg 96%
    05:00 +7°C° 0 mm 0 m/s 723 mmHg 95%
    06:00 +7°C° 0 mm 0 m/s 723 mmHg 95%
    07:00 +8°C° 0.2 mm 0 m/s 723 mmHg 93%
    08:00 +10°C° 0.2 mm 1 m/s 723 mmHg 91%
    09:00 +11°C° 0.2 mm 1 m/s 723 mmHg 88%
    10:00 +12°C° 0.2 mm 1 m/s 723 mmHg 80%
    11:00 +14°C° 0.2 mm 1 m/s 723 mmHg 71%
    12:00 +15°C° 0.2 mm 1 m/s 724 mmHg 63%
    13:00 +15°C° 0.4 mm 1 m/s 723 mmHg 63%
    14:00 +16°C° 0.4 mm 1 m/s 723 mmHg 64%
    15:00 +16°C° 0.4 mm 2 m/s 722 mmHg 65%
    16:00 +15°C° 0.9 mm 2 m/s 723 mmHg 71%
    17:00 +15°C° 0.9 mm 1 m/s 723 mmHg 78%
    18:00 +14°C° 0.9 mm 1 m/s 723 mmHg 84%
    19:00 +12°C° 0.4 mm 1 m/s 723 mmHg 88%
    20:00 +11°C° 0.4 mm 1 m/s 723 mmHg 92%
    21:00 +9°C° 0.4 mm 1 m/s 723 mmHg 95%
    22:00 +9°C° 0 mm 1 m/s 723 mmHg 96%
    23:00 +9°C° 0 mm 1 m/s 723 mmHg 97%

    Demain, 26 Mai, Mardi

    Heure Température Précipitation Vent Pression Humidité
    00:00 +8°C° 0 mm 1 m/s 723 mmHg 98%
    01:00 +8°C° 0 mm 1 m/s 723 mmHg 98%
    02:00 +8°C° 0 mm 1 m/s 723 mmHg 98%
    03:00 +8°C° 0 mm 1 m/s 723 mmHg 98%
    04:00 +8°C° 0.1 mm 1 m/s 723 mmHg 98%
    05:00 +9°C° 0.1 mm 1 m/s 723 mmHg 97%
    06:00 +9°C° 0.1 mm 1 m/s 724 mmHg 97%
    07:00 +10°C° 0.2 mm 1 m/s 724 mmHg 95%
    08:00 +11°C° 0.2 mm 1 m/s 724 mmHg 92%
    09:00 +11°C° 0.2 mm 1 m/s 724 mmHg 90%
    10:00 +12°C° 0.3 mm 2 m/s 724 mmHg 85%
    11:00 +13°C° 0.3 mm 2 m/s 724 mmHg 81%
    12:00 +13°C° 0.3 mm 3 m/s 724 mmHg 77%
    13:00 +14°C° 0.5 mm 3 m/s 724 mmHg 73%
    14:00 +16°C° 0.5 mm 3 m/s 724 mmHg 70%
    15:00 +17°C° 0.5 mm 3 m/s 723 mmHg 66%
    16:00 +16°C° 0.5 mm 2 m/s 723 mmHg 71%
    17:00 +16°C° 0.5 mm 2 m/s 723 mmHg 75%
    18:00 +16°C° 0.5 mm 1 m/s 723 mmHg 80%
    19:00 +14°C° 0.3 mm 1 m/s 723 mmHg 84%
    20:00 +12°C° 0.3 mm 1 m/s 724 mmHg 88%
    21:00 +11°C° 0.3 mm 1 m/s 724 mmHg 92%
    22:00 +9°C° 0 mm 0 m/s 724 mmHg 93%
    23:00 +9°C° 0 mm 0 m/s 724 mmHg 94%

    Après-demain, 27 Mai, Mercredi

    Heure Température Précipitation Vent Pression Humidité
    00:00 +8°C° 0 mm 0 m/s 724 mmHg 94%
    01:00 +8°C° 0 mm 0 m/s 723 mmHg 95%
    02:00 +7°C° 0 mm 0 m/s 723 mmHg 95%
    03:00 +7°C° 0 mm 0 m/s 723 mmHg 95%
    04:00 +8°C° 0 mm 0 m/s 723 mmHg 94%
    05:00 +8°C° 0 mm 0 m/s 724 mmHg 92%
    06:00 +9°C° 0 mm 0 m/s 724 mmHg 91%
    07:00 +13°C° 0 mm 1 m/s 724 mmHg 80%
    08:00 +16°C° 0 mm 1 m/s 724 mmHg 69%
    09:00 +19°C° 0 mm 1 m/s 724 mmHg 59%
    10:00 +21°C° 0 mm 1 m/s 724 mmHg 49%
    11:00 +23°C° 0 mm 1 m/s 724 mmHg 39%
    12:00 +25°C° 0 mm 1 m/s 724 mmHg 29%
    13:00 +25°C° 0 mm 1 m/s 723 mmHg 30%
    14:00 +24°C° 0 mm 2 m/s 723 mmHg 30%
    15:00 +24°C° 0 mm 2 m/s 722 mmHg 31%
    16:00 +24°C° 0 mm 1 m/s 722 mmHg 33%
    17:00 +23°C° 0 mm 1 m/s 722 mmHg 35%
    18:00 +23°C° 0 mm 1 m/s 722 mmHg 37%
    19:00 +21°C° 0 mm 1 m/s 723 mmHg 44%
    20:00 +18°C° 0 mm 1 m/s 723 mmHg 51%
    21:00 +14°C° 0 mm 0 m/s 723 mmHg 57%
    22:00 +13°C° 0 mm 0 m/s 723 mmHg 62%
    23:00 +13°C° 0 mm 1 m/s 723 mmHg 66%

    28 Mai, Jeudi

    Heure Température Précipitation Vent Pression Humidité
    00:00 +12°C° 0 mm 1 m/s 723 mmHg 71%
    01:00 +11°C° 0 mm 1 m/s 724 mmHg 74%
    02:00 +11°C° 0 mm 1 m/s 724 mmHg 77%
    03:00 +10°C° 0 mm 1 m/s 724 mmHg 80%
    04:00 +11°C° 0 mm 1 m/s 724 mmHg 77%
    05:00 +12°C° 0 mm 1 m/s 724 mmHg 74%
    06:00 +12°C° 0 mm 1 m/s 724 mmHg 70%
    07:00 +15°C° 0 mm 1 m/s 725 mmHg 60%
    08:00 +18°C° 0 mm 2 m/s 725 mmHg 50%
    09:00 +21°C° 0 mm 2 m/s 725 mmHg 40%
    10:00 +24°C° 0 mm 2 m/s 725 mmHg 35%
    11:00 +25°C° 0 mm 2 m/s 725 mmHg 31%
    12:00 +26°C° 0 mm 2 m/s 725 mmHg 27%
    13:00 +26°C° 0 mm 3 m/s 725 mmHg 26%
    14:00 +27°C° 0 mm 3 m/s 725 mmHg 26%
    15:00 +27°C° 0 mm 3 m/s 725 mmHg 26%
    16:00 +27°C° 0 mm 3 m/s 725 mmHg 28%
    17:00 +26°C° 0 mm 3 m/s 725 mmHg 30%
    18:00 +25°C° 0 mm 3 m/s 725 mmHg 33%
    19:00 +23°C° 0 mm 2 m/s 725 mmHg 41%
    20:00 +19°C° 0 mm 2 m/s 725 mmHg 49%
    21:00 +16°C° 0 mm 1 m/s 725 mmHg 58%
    22:00 +15°C° 0 mm 1 m/s 726 mmHg 61%
    23:00 +15°C° 0 mm 1 m/s 726 mmHg 64%

    29 Mai, Vendredi

    Heure Température Précipitation Vent Pression Humidité
    00:00 +14°C° 0 mm 1 m/s 726 mmHg 67%
    01:00 +14°C° 0 mm 2 m/s 726 mmHg 68%
    02:00 +13°C° 0 mm 2 m/s 726 mmHg 69%
    03:00 +13°C° 0 mm 2 m/s 726 mmHg 70%
    04:00 +14°C° 0 mm 2 m/s 726 mmHg 69%
    05:00 +14°C° 0 mm 2 m/s 726 mmHg 67%
    06:00 +15°C° 0 mm 2 m/s 727 mmHg 66%
    07:00 +18°C° 0 mm 3 m/s 727 mmHg 57%
    08:00 +20°C° 0 mm 4 m/s 727 mmHg 48%
    09:00 +23°C° 0 mm 5 m/s 727 mmHg 39%
    10:00 +26°C° 0 mm 5 m/s 727 mmHg 35%
    11:00 +27°C° 0 mm 5 m/s 727 mmHg 30%
    12:00 +28°C° 0 mm 5 m/s 727 mmHg 26%
    13:00 +28°C° 0 mm 5 m/s 726 mmHg 25%
    14:00 +29°C° 0 mm 5 m/s 726 mmHg 24%
    15:00 +29°C° 0 mm 5 m/s 726 mmHg 24%
    16:00 +28°C° 0 mm 4 m/s 726 mmHg 27%
    17:00 +27°C° 0 mm 4 m/s 725 mmHg 31%
    18:00 +27°C° 0 mm 3 m/s 725 mmHg 35%
    19:00 +25°C° 0 mm 3 m/s 725 mmHg 41%
    20:00 +22°C° 0 mm 3 m/s 725 mmHg 47%
    21:00 +20°C° 0 mm 2 m/s 725 mmHg 53%
    22:00 +19°C° 0 mm 2 m/s 725 mmHg 55%
    23:00 +18°C° 0 mm 2 m/s 725 mmHg 56%

    30 Mai, Samedi

    Heure Température Précipitation Vent Pression Humidité
    00:00 +18°C° 0 mm 3 m/s 725 mmHg 58%
    01:00 +17°C° 0 mm 3 m/s 725 mmHg 60%
    02:00 +17°C° 0 mm 3 m/s 724 mmHg 62%
    03:00 +17°C° 0 mm 3 m/s 724 mmHg 63%
    04:00 +17°C° 0 mm 3 m/s 724 mmHg 62%
    05:00 +18°C° 0 mm 3 m/s 724 mmHg 60%
    06:00 +18°C° 0 mm 4 m/s 723 mmHg 59%
    07:00 +20°C° 0 mm 5 m/s 723 mmHg 54%
    08:00 +22°C° 0 mm 5 m/s 723 mmHg 48%
    09:00 +23°C° 0 mm 6 m/s 723 mmHg 43%
    10:00 +26°C° 0 mm 6 m/s 723 mmHg 40%
    11:00 +27°C° 0 mm 6 m/s 723 mmHg 37%
    12:00 +29°C° 0 mm 6 m/s 723 mmHg 34%
    13:00 +29°C° 0 mm 6 m/s 723 mmHg 34%
    14:00 +29°C° 0 mm 6 m/s 722 mmHg 34%
    15:00 +30°C° 0 mm 7 m/s 722 mmHg 34%
    16:00 +29°C° 0 mm 6 m/s 723 mmHg 38%
    17:00 +28°C° 0 mm 6 m/s 723 mmHg 41%
    18:00 +28°C° 0 mm 5 m/s 723 mmHg 44%
    19:00 +25°C° 0 mm 5 m/s 723 mmHg 47%
    20:00 +22°C° 0 mm 4 m/s 723 mmHg 50%
    21:00 +19°C° 0 mm 3 m/s 724 mmHg 53%
    22:00 +18°C° 0 mm 3 m/s 724 mmHg 54%
    23:00 +18°C° 0 mm 2 m/s 724 mmHg 55%
    Voir plus